Powrót do katalogu

COSMOS 2251 DEB

AktywnyLEO
NORAD 36379·DEBRIS·🇷🇺 Russia

Wystrzelony Jun 16, 1993 z Plesetsk Cosmodrome

Loading…

Następne Przeloty (najbliższe 24 godziny)

TLE

Starzejące sięSource: Space-Track

Epoka: Sep 10, 2026, 11:09 UTC

1 36379U 93036AZG 26253.46468927  .00000364  00000-0  13169-3 0  9999
2 36379  74.0129 167.0157 0047272 232.3854 247.2500 14.36445902687299

Śledź COSMOS 2251 DEB w czasie rzeczywistym z AllMySat

Download on the App Store